FIN221 EFHK-ENTC

Flight info

Callsign FIN221
Flight time 1h 47m
Altitude 38000
Route NEPEK Y361 NISVI DCT RIXEM DCT MANKI
Aircraft A20N/M-SDE2E3FGHIRWXY/LB1

Departure

Time 2026-04-20 17:38
Airport Helsinki Vantaa Airport (EFHK)

Arrival

Time 2026-04-20 19:25
Airport Tromsø Airport (ENTC)
Time Latitude Longitude Altitude Speed Heading
2026-04-20 16:48 60.31943 24.96684 161 ft 0 kts 137°
2026-04-20 17:25 60.31944 24.96683 161 ft 2 kts 137°
2026-04-20 17:26 60.31956 24.96661 161 ft 2 kts 140°
2026-04-20 17:26 60.31970 24.96641 161 ft 2 kts 150°
2026-04-20 17:26 60.31985 24.96628 161 ft 2 kts 180°
2026-04-20 17:26 60.31999 24.96639 161 ft 2 kts 223°
2026-04-20 17:27 60.32001 24.96642 161 ft 0 kts 225°
2026-04-20 17:30 60.32000 24.96640 161 ft 1 kts 225°
2026-04-20 17:30 60.31984 24.96605 161 ft 7 kts 227°
2026-04-20 17:30 60.31934 24.96491 161 ft 14 kts 227°
2026-04-20 17:30 60.31867 24.96338 161 ft 15 kts 237°
2026-04-20 17:31 60.31873 24.96131 161 ft 16 kts 308°
2026-04-20 17:31 60.31894 24.96088 161 ft 0 kts 315°
2026-04-20 17:31 60.31903 24.96071 161 ft 7 kts 315°
2026-04-20 17:32 60.31912 24.95931 161 ft 14 kts 237°
2026-04-20 17:32 60.31828 24.95730 161 ft 23 kts 230°
2026-04-20 17:32 60.31707 24.95472 161 ft 27 kts 228°
2026-04-20 17:32 60.31576 24.95185 161 ft 29 kts 227°
2026-04-20 17:33 60.31506 24.95032 161 ft 16 kts 227°
2026-04-20 17:33 60.31417 24.94838 161 ft 21 kts 227°
2026-04-20 17:33 60.31325 24.94634 161 ft 20 kts 227°
2026-04-20 17:33 60.31227 24.94419 161 ft 22 kts 227°
2026-04-20 17:34 60.31145 24.94238 161 ft 12 kts 227°
2026-04-20 17:34 60.31090 24.94120 161 ft 9 kts 227°
2026-04-20 17:34 60.31043 24.93999 161 ft 12 kts 243°
2026-04-20 17:34 60.31039 24.93865 161 ft 0 kts 288°
2026-04-20 17:35 60.31039 24.93864 161 ft 0 kts 288°
2026-04-20 17:35 60.31056 24.93799 161 ft 11 kts 308°
2026-04-20 17:35 60.31136 24.93726 160 ft 15 kts
2026-04-20 17:36 60.31204 24.93795 162 ft 0 kts 43°
2026-04-20 17:37 60.31212 24.93812 162 ft 8 kts 44°
2026-04-20 17:37 60.31442 24.94316 162 ft 91 kts 48°
2026-04-20 17:38 60.32037 24.95620 173 ft 157 kts 46°
2026-04-20 17:38 60.32736 24.97239 915 ft 156 kts 48°
2026-04-20 17:38 60.33450 24.98880 1903 ft 155 kts 47°
2026-04-20 17:38 60.34205 25.00564 2687 ft 170 kts 47°
2026-04-20 17:39 60.35051 25.02424 3405 ft 189 kts 47°
2026-04-20 17:39 60.36004 25.04517 3860 ft 222 kts 47°
2026-04-20 17:39 60.37080 25.06892 4647 ft 238 kts 48°
2026-04-20 17:39 60.38255 25.09523 4783 ft 258 kts 48°
2026-04-20 17:40 60.39576 25.11903 4389 ft 258 kts 30°
2026-04-20 17:40 60.41272 25.12951 4029 ft 257 kts
2026-04-20 17:40 60.43013 25.12975 4001 ft 243 kts
2026-04-20 17:40 60.44732 25.13019 3993 ft 249 kts
2026-04-20 17:41 60.46455 25.13082 4000 ft 247 kts
2026-04-20 17:41 60.48168 25.13143 3992 ft 246 kts
2026-04-20 17:41 60.49869 25.12872 3998 ft 249 kts 346°
2026-04-20 17:41 60.51370 25.11085 3991 ft 256 kts 318°
2026-04-20 17:42 60.52482 25.08230 3995 ft 259 kts 308°
2026-04-20 17:42 60.53534 25.05264 3993 ft 259 kts 310°
2026-04-20 17:42 60.54605 25.02331 4001 ft 258 kts 310°
2026-04-20 17:42 60.55687 24.99403 3999 ft 259 kts 312°
2026-04-20 17:43 60.56791 24.96514 3999 ft 258 kts 313°
2026-04-20 17:43 60.57899 24.93643 3998 ft 258 kts 312°
2026-04-20 17:43 60.58620 24.91713 4003 ft 259 kts 309°
2026-04-20 17:43 60.59669 24.88748 4001 ft 258 kts 308°
2026-04-20 17:44 60.60728 24.85787 4008 ft 258 kts 310°
2026-04-20 17:44 60.61792 24.82853 4004 ft 258 kts 310°
2026-04-20 17:44 60.62864 24.79910 3998 ft 258 kts 310°
2026-04-20 17:44 60.63931 24.76967 4015 ft 258 kts 310°
2026-04-20 17:45 60.65005 24.74006 4215 ft 262 kts 310°
2026-04-20 17:45 60.65984 24.71315 4877 ft 263 kts 310°
2026-04-20 17:45 60.67073 24.68317 5943 ft 265 kts 310°
2026-04-20 17:45 60.68050 24.65638 6723 ft 270 kts 310°
2026-04-20 17:46 60.69182 24.62534 7644 ft 275 kts 310°
2026-04-20 17:46 60.70331 24.59379 8561 ft 279 kts 310°
2026-04-20 17:46 60.71494 24.56162 9471 ft 284 kts 309°
2026-04-20 17:46 60.72667 24.52869 10342 ft 289 kts 309°
2026-04-20 17:47 60.73900 24.49675 11148 ft 290 kts 317°
2026-04-20 17:47 60.75444 24.47045 11954 ft 288 kts 331°
2026-04-20 17:47 60.77198 24.45041 12775 ft 290 kts 335°
2026-04-20 17:47 60.78997 24.43083 13563 ft 294 kts 340°
2026-04-20 17:48 60.80835 24.41177 14341 ft 298 kts 339°
2026-04-20 17:48 60.82677 24.39151 15085 ft 302 kts 337°
2026-04-20 17:48 60.84527 24.37070 15806 ft 305 kts 335°
2026-04-20 17:48 60.86389 24.34905 16515 ft 309 kts 335°
2026-04-20 17:49 60.88270 24.32713 17225 ft 313 kts 335°
2026-04-20 17:49 60.90181 24.30510 17924 ft 316 kts 336°
2026-04-20 17:49 60.92117 24.28296 18617 ft 320 kts 336°
2026-04-20 17:49 60.94075 24.26066 19218 ft 323 kts 336°
2026-04-20 17:50 60.96052 24.23816 19829 ft 326 kts 337°
2026-04-20 17:50 60.98048 24.21541 20431 ft 329 kts 337°
2026-04-20 17:50 61.00061 24.19243 21026 ft 332 kts 337°
2026-04-20 17:50 61.02096 24.16918 21618 ft 336 kts 337°
2026-04-20 17:51 61.04149 24.14574 22206 ft 339 kts 337°
2026-04-20 17:51 61.06219 24.12205 22788 ft 342 kts 338°
2026-04-20 17:51 61.08309 24.09806 23386 ft 345 kts 338°
2026-04-20 17:51 61.10415 24.07386 23950 ft 348 kts 338°
2026-04-20 17:52 61.12604 24.05338 24402 ft 344 kts 347°
2026-04-20 17:52 61.14897 24.04015 24857 ft 341 kts 355°
2026-04-20 17:52 61.17236 24.03177 25319 ft 342 kts 356°
2026-04-20 17:52 61.19592 24.02312 25768 ft 345 kts 356°
2026-04-20 17:53 61.21965 24.01431 26213 ft 348 kts 356°
2026-04-20 17:53 61.24325 24.00558 26639 ft 350 kts 356°
2026-04-20 17:53 61.26738 23.99671 27074 ft 353 kts 356°
2026-04-20 17:53 61.29161 23.98784 27490 ft 355 kts 356°
2026-04-20 17:54 61.31605 23.97890 27911 ft 358 kts 356°
2026-04-20 17:54 61.34064 23.96989 28306 ft 360 kts 356°
2026-04-20 17:54 61.36539 23.96081 28705 ft 362 kts 356°
2026-04-20 17:54 61.39031 23.95166 29094 ft 365 kts 356°
2026-04-20 17:55 61.41544 23.94241 29471 ft 368 kts 356°
2026-04-20 17:55 61.44069 23.93310 29838 ft 370 kts 355°
2026-04-20 17:55 61.46617 23.92368 30222 ft 372 kts 355°
2026-04-20 17:55 61.49179 23.91421 30551 ft 375 kts 355°
2026-04-20 17:56 61.51754 23.90466 30856 ft 377 kts 355°
2026-04-20 17:56 61.54349 23.89502 31163 ft 379 kts 355°
2026-04-20 17:56 61.56951 23.88535 31471 ft 381 kts 355°
2026-04-20 17:56 61.59571 23.87557 31756 ft 384 kts 355°
2026-04-20 17:57 61.62206 23.86572 32057 ft 386 kts 355°
2026-04-20 17:57 61.64858 23.85579 32335 ft 388 kts 355°
2026-04-20 17:57 61.67522 23.84580 32628 ft 390 kts 354°
2026-04-20 17:57 61.70205 23.83571 32898 ft 392 kts 354°
2026-04-20 17:58 61.72864 23.82569 33175 ft 394 kts 354°
2026-04-20 17:58 61.75603 23.81534 33447 ft 396 kts 354°
2026-04-20 17:58 61.78320 23.80506 33712 ft 398 kts 354°
2026-04-20 17:58 61.81016 23.79484 33961 ft 399 kts 354°
2026-04-20 17:59 61.83752 23.78446 34211 ft 401 kts 354°
2026-04-20 17:59 61.86512 23.77397 34428 ft 403 kts 354°
2026-04-20 17:59 61.89275 23.76344 34641 ft 404 kts 354°
2026-04-20 17:59 61.92053 23.75284 34839 ft 406 kts 353°
2026-04-20 18:00 61.94841 23.74217 35030 ft 408 kts 353°
2026-04-20 18:00 61.97646 23.73143 35222 ft 410 kts 353°
2026-04-20 18:00 62.00456 23.72063 35415 ft 411 kts 353°
2026-04-20 18:00 62.03281 23.70976 35605 ft 413 kts 353°
2026-04-20 18:01 62.06113 23.69885 35783 ft 414 kts 353°
2026-04-20 18:01 62.08954 23.68788 35960 ft 416 kts 353°
2026-04-20 18:01 62.11768 23.67699 36144 ft 417 kts 353°
2026-04-20 18:01 62.14628 23.66591 36305 ft 419 kts 353°
2026-04-20 18:02 62.17500 23.65476 36471 ft 420 kts 353°
2026-04-20 18:02 62.20379 23.64354 36636 ft 422 kts 352°
2026-04-20 18:02 62.23278 23.63224 36786 ft 423 kts 352°
2026-04-20 18:02 62.26176 23.62091 36948 ft 424 kts 352°
2026-04-20 18:03 62.29083 23.60953 37088 ft 426 kts 352°
2026-04-20 18:03 62.32003 23.59807 37240 ft 427 kts 352°
2026-04-20 18:03 62.34929 23.58657 37374 ft 428 kts 352°
2026-04-20 18:03 62.37864 23.57501 37512 ft 429 kts 352°
2026-04-20 18:04 62.40805 23.56340 37651 ft 430 kts 352°
2026-04-20 18:04 62.43760 23.55172 37787 ft 432 kts 352°
2026-04-20 18:04 62.46719 23.54000 37922 ft 432 kts 352°
2026-04-20 18:04 62.49680 23.52823 38107 ft 432 kts 352°
2026-04-20 18:05 62.55603 23.50461 38368 ft 433 kts 352°
2026-04-20 18:05 62.61511 23.48097 38371 ft 431 kts 352°
2026-04-20 18:06 62.67408 23.45728 38367 ft 431 kts 352°
2026-04-20 18:06 62.73144 23.43414 38360 ft 431 kts 351°
2026-04-20 18:07 62.76948 23.41876 38366 ft 431 kts 351°
2026-04-20 18:07 62.82852 23.39477 38366 ft 431 kts 351°
2026-04-20 18:08 62.88742 23.37079 38368 ft 431 kts 351°
2026-04-20 18:08 62.94641 23.34667 38369 ft 430 kts 351°
2026-04-20 18:09 63.00528 23.32249 38375 ft 430 kts 351°
2026-04-20 18:09 63.06380 23.29835 38373 ft 430 kts 351°
2026-04-20 18:10 63.12264 23.27398 38371 ft 430 kts 351°
2026-04-20 18:10 63.18146 23.24952 38372 ft 430 kts 351°
2026-04-20 18:11 63.24022 23.22500 38376 ft 430 kts 351°
2026-04-20 18:11 63.29899 23.20036 38375 ft 429 kts 351°
2026-04-20 18:12 63.35770 23.17562 38372 ft 429 kts 351°
2026-04-20 18:12 63.41643 23.15080 38377 ft 429 kts 351°
2026-04-20 18:13 63.47476 23.12603 38375 ft 429 kts 351°
2026-04-20 18:13 63.53339 23.10104 38374 ft 429 kts 351°
2026-04-20 18:14 63.59203 23.07593 38376 ft 429 kts 350°
2026-04-20 18:14 63.65062 23.05074 38371 ft 428 kts 350°
2026-04-20 18:15 63.70920 23.02544 38374 ft 428 kts 350°
2026-04-20 18:15 63.76779 23.00003 38373 ft 428 kts 350°
2026-04-20 18:16 63.82636 22.97453 38373 ft 428 kts 350°
2026-04-20 18:16 63.88488 22.94894 38379 ft 428 kts 350°
2026-04-20 18:17 63.94305 22.92339 38379 ft 428 kts 350°
2026-04-20 18:17 64.00152 22.89758 38380 ft 428 kts 350°
2026-04-20 18:18 64.06002 22.87166 38377 ft 428 kts 350°
2026-04-20 18:18 64.11853 22.84564 38379 ft 428 kts 350°
2026-04-20 18:19 64.17700 22.81952 38381 ft 428 kts 350°
2026-04-20 18:19 64.23544 22.79330 38378 ft 428 kts 350°
2026-04-20 18:20 64.29383 22.76698 38376 ft 428 kts 349°
2026-04-20 18:20 64.35031 22.74142 38376 ft 428 kts 349°
2026-04-20 18:21 64.40876 22.71486 38379 ft 428 kts 349°
2026-04-20 18:21 64.46719 22.68820 38376 ft 428 kts 349°
2026-04-20 18:22 64.52598 22.66137 38375 ft 434 kts 350°
2026-04-20 18:22 64.58465 22.63456 38374 ft 426 kts 349°
2026-04-20 18:23 64.64293 22.60761 38380 ft 428 kts 349°
2026-04-20 18:23 64.69768 22.58216 38375 ft 428 kts 349°
2026-04-20 18:24 64.75609 22.55485 38374 ft 428 kts 349°
2026-04-20 18:24 64.81409 22.52761 38374 ft 428 kts 349°
2026-04-20 18:25 64.87249 22.50015 38370 ft 428 kts 349°
2026-04-20 18:25 64.93089 22.47257 38374 ft 428 kts 349°
2026-04-20 18:26 64.98925 22.44486 38371 ft 428 kts 349°
2026-04-20 18:26 65.04759 22.41702 38374 ft 428 kts 349°
2026-04-20 18:27 65.10534 22.38933 38374 ft 428 kts 349°
2026-04-20 18:27 65.16365 22.36126 38373 ft 428 kts 349°
2026-04-20 18:28 65.22112 22.33347 38372 ft 428 kts 349°
2026-04-20 18:28 65.27997 22.30483 38373 ft 428 kts 349°
2026-04-20 18:29 65.33835 22.27633 38372 ft 428 kts 349°
2026-04-20 18:29 65.38685 22.25261 38372 ft 428 kts 348°
2026-04-20 18:30 65.44517 22.22395 38372 ft 428 kts 348°
2026-04-20 18:30 65.50348 22.19515 38374 ft 428 kts 348°
2026-04-20 18:31 65.56180 22.16623 38372 ft 428 kts 348°
2026-04-20 18:31 65.62017 22.13713 38376 ft 428 kts 348°
2026-04-20 18:32 65.67848 22.10793 38375 ft 428 kts 348°
2026-04-20 18:32 65.73608 22.07896 38374 ft 428 kts 348°
2026-04-20 18:33 65.79414 22.04962 38372 ft 428 kts 348°
2026-04-20 18:33 65.85248 22.02000 38372 ft 428 kts 348°
2026-04-20 18:34 65.91073 21.99027 38369 ft 428 kts 348°
2026-04-20 18:34 65.96880 21.96046 38372 ft 428 kts 348°
2026-04-20 18:35 66.02718 21.93046 38373 ft 428 kts 348°
2026-04-20 18:35 66.08552 21.90032 38373 ft 428 kts 348°
2026-04-20 18:36 66.14354 21.87016 38375 ft 428 kts 348°
2026-04-20 18:36 66.20183 21.83961 38379 ft 428 kts 347°
2026-04-20 18:37 66.26015 21.80877 38375 ft 428 kts 347°
2026-04-20 18:37 66.31386 21.78048 38382 ft 428 kts 347°
2026-04-20 18:38 66.35498 21.75882 38373 ft 428 kts 347°
2026-04-20 18:38 66.41323 21.72797 38377 ft 428 kts 347°
2026-04-20 18:39 66.47139 21.69645 38375 ft 428 kts 347°
2026-04-20 18:39 66.52959 21.66505 38375 ft 427 kts 347°
2026-04-20 18:40 66.58783 21.63373 38376 ft 427 kts 347°
2026-04-20 18:40 66.64598 21.60233 38376 ft 428 kts 347°
2026-04-20 18:41 66.70413 21.57091 38383 ft 428 kts 347°
2026-04-20 18:41 66.76230 21.53906 38384 ft 428 kts 347°
2026-04-20 18:42 66.82059 21.50705 38380 ft 428 kts 347°
2026-04-20 18:42 66.87847 21.47512 38381 ft 428 kts 347°
2026-04-20 18:43 66.93674 21.44283 38376 ft 428 kts 347°
2026-04-20 18:43 66.99506 21.41037 38374 ft 429 kts 347°
2026-04-20 18:44 67.05332 21.37778 38367 ft 429 kts 346°
2026-04-20 18:44 67.11162 21.34503 38365 ft 429 kts 346°
2026-04-20 18:45 67.16996 21.31212 38366 ft 429 kts 346°
2026-04-20 18:45 67.22834 21.27896 38369 ft 429 kts 346°
2026-04-20 18:46 67.28667 21.24572 38372 ft 429 kts 347°
2026-04-20 18:46 67.34466 21.21258 38378 ft 429 kts 346°
2026-04-20 18:47 67.40296 21.17892 38387 ft 429 kts 346°
2026-04-20 18:47 67.46128 21.14504 38395 ft 429 kts 346°
2026-04-20 18:48 67.51774 21.11211 38392 ft 429 kts 346°
2026-04-20 18:48 67.57337 21.07952 38396 ft 429 kts 346°
2026-04-20 18:49 67.63126 21.04543 38384 ft 429 kts 346°
2026-04-20 18:49 67.68768 21.01204 38378 ft 429 kts 346°
2026-04-20 18:50 67.74596 20.97742 38371 ft 429 kts 346°
2026-04-20 18:50 67.78773 20.95248 38363 ft 429 kts 346°
2026-04-20 18:51 67.84598 20.91763 38359 ft 429 kts 346°
2026-04-20 18:51 67.90425 20.88261 38356 ft 429 kts 346°
2026-04-20 18:52 67.96248 20.84731 38365 ft 429 kts 346°
2026-04-20 18:52 68.02077 20.81173 38366 ft 429 kts 346°
2026-04-20 18:53 68.07906 20.77598 38372 ft 430 kts 346°
2026-04-20 18:53 68.13717 20.74025 38380 ft 430 kts 346°
2026-04-20 18:54 68.19545 20.70431 38376 ft 430 kts 346°
2026-04-20 18:54 68.25381 20.66818 38065 ft 429 kts 346°
2026-04-20 18:55 68.28279 20.65008 37781 ft 427 kts 345°
2026-04-20 18:55 68.31171 20.63190 37512 ft 426 kts 345°
2026-04-20 18:55 68.34005 20.61405 37257 ft 426 kts 346°
2026-04-20 18:55 68.36893 20.59587 36998 ft 426 kts 346°
2026-04-20 18:56 68.39781 20.57774 36731 ft 424 kts 346°
2026-04-20 18:56 68.42643 20.55978 36300 ft 421 kts 346°
2026-04-20 18:56 68.45493 20.54178 35720 ft 419 kts 346°
2026-04-20 18:56 68.48331 20.52375 35103 ft 419 kts 346°
2026-04-20 18:57 68.51164 20.50575 34502 ft 417 kts 346°
2026-04-20 18:57 68.53986 20.48778 33789 ft 417 kts 346°
2026-04-20 18:57 68.56817 20.46970 32937 ft 418 kts 346°
2026-04-20 18:57 68.59666 20.45147 32080 ft 421 kts 346°
2026-04-20 18:58 68.62524 20.43313 31242 ft 423 kts 346°
2026-04-20 18:58 68.65394 20.41465 30483 ft 423 kts 345°
2026-04-20 18:58 68.68232 20.39633 29782 ft 420 kts 345°
2026-04-20 18:58 68.70662 20.38062 29232 ft 416 kts 345°
2026-04-20 18:59 68.73469 20.36242 28593 ft 411 kts 345°
2026-04-20 18:59 68.76208 20.34154 27956 ft 406 kts 338°
2026-04-20 18:59 68.78710 20.30674 27325 ft 401 kts 326°
2026-04-20 18:59 68.80858 20.25865 26719 ft 397 kts 314°
2026-04-20 19:00 68.82589 20.20085 26109 ft 394 kts 308°
2026-04-20 19:00 68.84276 20.14033 25523 ft 390 kts 308°
2026-04-20 19:00 68.85918 20.08199 24946 ft 387 kts 308°
2026-04-20 19:00 68.87570 20.02330 24376 ft 385 kts 308°
2026-04-20 19:01 68.89208 19.96487 23808 ft 382 kts 308°
2026-04-20 19:01 68.90590 19.91534 23230 ft 378 kts 308°
2026-04-20 19:01 68.92182 19.85805 22354 ft 372 kts 308°
2026-04-20 19:01 68.93805 19.80249 21477 ft 369 kts 313°
2026-04-20 19:02 68.95658 19.75386 20650 ft 364 kts 321°
2026-04-20 19:02 68.97712 19.71326 19840 ft 361 kts 328°
2026-04-20 19:02 68.99888 19.67871 19051 ft 357 kts 329°
2026-04-20 19:02 69.02030 19.64446 18253 ft 353 kts 329°
2026-04-20 19:03 69.04133 19.61055 17479 ft 346 kts 328°
2026-04-20 19:03 69.06205 19.57696 16709 ft 341 kts 328°
2026-04-20 19:03 69.08251 19.54421 15963 ft 336 kts 328°
2026-04-20 19:03 69.10265 19.51211 15210 ft 331 kts 329°
2026-04-20 19:04 69.12259 19.48032 14500 ft 327 kts 328°
2026-04-20 19:04 69.14217 19.44887 13813 ft 321 kts 328°
2026-04-20 19:04 69.16143 19.41764 13160 ft 317 kts 328°
2026-04-20 19:04 69.18034 19.38673 12417 ft 312 kts 327°
2026-04-20 19:05 69.19898 19.35602 11666 ft 309 kts 327°
2026-04-20 19:05 69.21717 19.32599 10954 ft 306 kts 327°
2026-04-20 19:05 69.23553 19.29583 10497 ft 294 kts 327°
2026-04-20 19:05 69.25262 19.26768 10304 ft 275 kts 326°
2026-04-20 19:06 69.26839 19.24158 10029 ft 259 kts 326°
2026-04-20 19:06 69.28382 19.21595 9444 ft 256 kts 326°
2026-04-20 19:06 69.29832 19.19172 8866 ft 255 kts 325°
2026-04-20 19:06 69.30912 19.17353 8452 ft 254 kts 325°
2026-04-20 19:07 69.32481 19.14702 7894 ft 252 kts 325°
2026-04-20 19:07 69.33974 19.12189 7501 ft 248 kts 325°
2026-04-20 19:07 69.35484 19.09651 7385 ft 254 kts 325°
2026-04-20 19:07 69.36994 19.07120 7366 ft 251 kts 325°
2026-04-20 19:08 69.38505 19.04597 7366 ft 252 kts 327°
2026-04-20 19:08 69.42039 19.03521 7289 ft 272 kts
2026-04-20 19:08 69.43651 19.04618 7183 ft 272 kts
2026-04-20 19:09 69.45488 19.05891 7062 ft 272 kts
2026-04-20 19:09 69.47325 19.07152 6929 ft 270 kts
2026-04-20 19:09 69.49152 19.08392 6821 ft 270 kts
2026-04-20 19:09 69.50980 19.09622 6673 ft 268 kts
2026-04-20 19:10 69.52807 19.10843 6563 ft 272 kts
2026-04-20 19:10 69.54642 19.12076 6423 ft 269 kts
2026-04-20 19:10 69.56465 19.13304 6284 ft 269 kts
2026-04-20 19:10 69.58259 19.14508 6166 ft 270 kts
2026-04-20 19:11 69.60087 19.15740 6000 ft 269 kts
2026-04-20 19:11 69.61914 19.16971 5944 ft 272 kts
2026-04-20 19:11 69.63755 19.18228 5815 ft 268 kts
2026-04-20 19:11 69.65575 19.19464 5695 ft 270 kts
2026-04-20 19:12 69.67399 19.20719 5553 ft 267 kts
2026-04-20 19:12 69.69088 19.21884 5452 ft 268 kts
2026-04-20 19:12 69.70911 19.23128 5331 ft 270 kts
2026-04-20 19:12 69.72731 19.24376 5195 ft 269 kts
2026-04-20 19:13 69.74557 19.25617 5075 ft 269 kts
2026-04-20 19:13 69.75750 19.26426 4999 ft 262 kts
2026-04-20 19:13 69.78046 19.27997 4988 ft 244 kts
2026-04-20 19:13 69.79655 19.29110 4993 ft 235 kts
2026-04-20 19:14 69.81307 19.30221 4988 ft 247 kts
2026-04-20 19:14 69.82932 19.31334 4979 ft 233 kts
2026-04-20 19:14 69.84522 19.32436 4993 ft 239 kts
2026-04-20 19:14 69.85594 19.33179 4965 ft 239 kts
2026-04-20 19:15 69.87203 19.34355 4997 ft 238 kts
2026-04-20 19:15 69.88812 19.35488 5018 ft 238 kts
2026-04-20 19:15 69.90369 19.35500 4964 ft 208 kts 335°
2026-04-20 19:15 69.91495 19.33612 4934 ft 171 kts 309°
2026-04-20 19:16 69.92170 19.30810 5098 ft 176 kts 292°
2026-04-20 19:16 69.92503 19.27605 4971 ft 153 kts 283°
2026-04-20 19:16 69.92723 19.24840 4976 ft 129 kts 280°
2026-04-20 19:16 69.92908 19.22343 4984 ft 124 kts 281°
2026-04-20 19:17 69.93093 19.19913 4984 ft 124 kts 281°
2026-04-20 19:17 69.93284 19.17460 4986 ft 124 kts 281°
2026-04-20 19:17 69.93476 19.15009 4982 ft 124 kts 282°
2026-04-20 19:17 69.93652 19.12552 4983 ft 124 kts 272°
2026-04-20 19:18 69.93366 19.10255 4877 ft 127 kts 240°
2026-04-20 19:18 69.92696 19.08546 4598 ft 131 kts 220°
2026-04-20 19:18 69.91830 19.07587 4483 ft 135 kts 203°
2026-04-20 19:18 69.90901 19.07079 4486 ft 137 kts 202°
2026-04-20 19:19 69.89973 19.06478 4483 ft 136 kts 203°
2026-04-20 19:19 69.89060 19.05865 4494 ft 135 kts 204°
2026-04-20 19:19 69.88137 19.05231 4484 ft 137 kts 204°
2026-04-20 19:19 69.87194 19.04586 4493 ft 141 kts 204°
2026-04-20 19:20 69.86268 19.03992 4496 ft 134 kts 205°
2026-04-20 19:20 69.85307 19.03296 4469 ft 144 kts 204°
2026-04-20 19:20 69.84341 19.02658 4238 ft 138 kts 202°
2026-04-20 19:20 69.83420 19.02036 4012 ft 135 kts 202°
2026-04-20 19:21 69.82528 19.01434 3774 ft 131 kts 203°
2026-04-20 19:21 69.81638 19.00826 3540 ft 132 kts 202°
2026-04-20 19:21 69.80743 19.00222 3306 ft 132 kts 202°
2026-04-20 19:21 69.79856 18.99624 3058 ft 131 kts 201°
2026-04-20 19:22 69.79000 18.99048 2827 ft 131 kts 201°
2026-04-20 19:22 69.78117 18.98453 2584 ft 130 kts 200°
2026-04-20 19:22 69.77245 18.97869 2342 ft 129 kts 201°
2026-04-20 19:22 69.76367 18.97275 2104 ft 130 kts 201°
2026-04-20 19:23 69.75486 18.96684 1844 ft 128 kts 200°
2026-04-20 19:23 69.74611 18.96091 1605 ft 131 kts 199°
2026-04-20 19:23 69.73717 18.95498 1344 ft 132 kts 198°
2026-04-20 19:23 69.72832 18.94899 1082 ft 130 kts 199°
2026-04-20 19:24 69.71954 18.94309 828 ft 132 kts 199°
2026-04-20 19:24 69.71053 18.93714 595 ft 129 kts 200°
2026-04-20 19:24 69.70200 18.93140 379 ft 127 kts 199°
2026-04-20 19:24 69.69334 18.92552 151 ft 130 kts 200°
2026-04-20 19:25 69.68491 18.91982 29 ft 107 kts 195°
2026-04-20 19:25 69.68035 18.91677 29 ft 42 kts 191°
2026-04-20 19:25 69.67773 18.91509 32 ft 25 kts 201°
2026-04-20 19:25 69.67747 18.91232 32 ft 12 kts 281°
2026-04-20 19:26 69.67749 18.91207 32 ft 3 kts 281°
2026-04-20 19:26 69.67773 18.91146 32 ft 6 kts
2026-04-20 19:26 69.67799 18.91160 32 ft 10 kts
2026-04-20 19:26 69.67828 18.91109 31 ft 6 kts 307°
2026-04-20 19:27 69.67831 18.90955 31 ft 8 kts 281°
2026-04-20 19:27 69.67832 18.90942 31 ft 0 kts 285°